Vorticity
30 27 14 22 21 16 12 9 16 25 11 12 35 -1 4 9 6 8 5 8 6 4 9 11 7 6 8 7 4 3 5 7 9 6 6 6 3 4 7 6 7 6 6 9
14 17 26 24 23 19 12 5 13 11 6 27 20 19 45 17 4 3 6 7 10 8 5 7 10 11 4 9 5 4 12 14 9 8 7 5 3 3 6 6 9 8 9 9
12 24 26 24 17 17 9 13 7 10 -8 2 29 2 -20 2 8 11 5 8 11 10 9 8 6 -3 4 10 8 8 4 6 4 9 8 8 6 6 5 5 10 8 7 11
13 18 21 36 17 12 14 15 19 17 -5 7 1 20 8 16 16 3 9 11 7 7 8 7 3 4 8 7 4 4 6 9 7 11 9 9 10 6 4 4 11 8 9 11
23 14 12 3 39 15 15 6 13 17 -16 -2 -31 -9 11 11 25 65 11 3 8 10 9 8 6 6 6 6 7 9 10 8 10 9 12 12 11 8 5 5 10 8 6 11
17 16 5 10 7 25 7 5 4 9 17 23 5 9 5 3 -5 8 12 20 22 12 5 5 6 7 9 11 11 10 10 8 14 12 12 11 13 8 7 7 8 9 7 10
28 6 12 28 3 9 5 5 5 17 7 24 28 27 7 3 7 -10 34 32 16 15 13 11 13 11 10 12 11 9 10 9 11 15 4 11 11 9 6 7 8 9 8 10
24 8 7 14 3 8 12 14 16 16 20 20 44 21 50 10 3 14 -14 -2 14 22 11 7 9 12 10 8 7 8 10 8 10 13 5 11 10 9 4 8 8 9 8 10
-24 -2 56 1 19 8 15 17 42 3 31 34 -1 -8 -21 37 20 18 9 9 8 11 15 16 13 10 11 12 11 12 8 11 11 9 7 8 12 10 8 10 6 10 6 10
13 26 15 5 28 18 22 28 -6 8 25 1 4 9 27 47 12 0 5 4 10 16 10 13 13 15 15 11 11 12 13 13 8 8 14 11 16 12 9 8 7 11 7 11
23 -7 -6 12 5 15 7 7 4 -16 13 25 12 11 30 34 8 53 25 19 14 11 11 12 11 10 11 12 11 10 15 13 14 20 21 18 16 11 8 7 6 9 9 11
-25 7 3 13 3 19 18 24 -9 23 -17 8 21 8 53 -9 0 -9 -2 10 14 10 12 12 11 11 12 9 7 7 12 14 16 23 18 14 12 7 6 6 5 2 10 12
15 17 16 23 18 8 27 26 9 18 38 -16 -11 -9 -1 3 9 21 0 12 13 12 11 3 9 13 10 16 14 12 7 8 21 7 8 14 8 5 7 4 13 1 5 13
-19 -4 11 10 5 7 12 -17 31 -1 -0 23 2 23 -8 9 21 8 9 11 16 14 13 11 7 9 6 12 15 10 10 18 14 17 14 11 9 5 0 1 4 6 2 10
41 7 -5 23 15 24 8 8 15 4 15 5 20 -11 9 -19 2 7 9 9 9 14 14 11 11 10 9 7 11 19 14 9 13 9 7 5 6 -1 17 13 1 3 1 7
-2 7 13 63 41 18 18 11 3 13 13 8 1 21 19 8 9 8 7 11 10 11 12 16 10 11 11 16 14 14 17 12 13 -0 8 11 8 12 3 9 -0 4 -1 2
10 9 -1 -26 11 8 -6 2 7 7 11 6 9 5 3 7 9 9 6 9 7 9 12 11 15 21 9 16 15 12 20 23 8 8 6 5 1 8 -11 8 1 2 17 3
-5 10 12 17 20 25 9 7 7 9 17 15 2 11 9 7 9 12 10 8 10 10 12 18 18 14 17 39 52 25 10 22 17 7 4 5 -0 10 -2 15 -1 7 7 5
45 0 -11 -6 -1 -10 6 12 18 23 8 6 10 11 9 7 4 8 11 10 12 20 -3 9 6 20 19 1 36 43 36 8 16 10 3 2 -8 9 -12 -0 18 12 11 11
7 34 44 25 7 -1 5 14 11 9 11 7 10 9 11 7 -0 4 8 13 6 17 24 17 15 13 13 22 15 -16 43 36 7 8 9 6 -2 18 19 12 11 -1 6 10
7 8 8 5 5 2 7 13 12 12 10 9 12 9 10 11 6 3 2 3 -2 7 10 7 10 15 13 12 23 -5 16 64 17 7 13 17 25 62 -46 -8 62 -28 5 1
9 -0 9 13 10 8 10 5 4 10 11 12 14 10 10 9 10 9 9 11 12 11 9 -1 7 16 7 16 21 21 15 32 -25 89 -1 38 26 -1 35 69 -29 32 -27 -10
7 10 2 6 9 9 12 11 8 2 3 8 6 10 14 13 11 9 8 7 6 5 10 9 6 -1 4 11 10 15 14 14 20 30 9 42 -10 1 -7 42 2 -1 42 11
8 8 7 9 8 6 9 13 10 13 13 8 5 2 0 -0 1 3 3 5 4 7 6 11 5 4 4 10 11 14 5 3 6 20 14 21 12 44 20 12 35 14 18 18
6 6 6 6 9 8 8 9 6 10 13 13 14 16 15 13 13 12 11 13 15 9 9 11 12 13 2 -0 2 3 1 8 6 6 6 10 11 16 14 22 23 27 18 24
7 6 8 9 10 8 8 11 12 10 7 9 9 8 10 13 14 14 14 12 11 13 13 11 17 20 13 11 9 9 15 10 11 8 9 9 7 6 9 13 15 7 2 10
Height
5589 5586 5590 5611 5622 5631 5637 5640 5648 5657 5665 5669 5672 5678 5684 5688 5699 5702 5705 5707 5713 5717 5720 5725 5727 5732 5735 5737 5739 5737 5742 5748 5750 5748 5749 5750 5752 5753 5753 5754 5755 5755 5752 5750
5573 5570 5589 5597 5601 5613 5620 5627 5637 5646 5653 5657 5660 5666 5671 5677 5685 5691 5695 5699 5704 5709 5711 5715 5717 5721 5726 5728 5729 5729 5733 5737 5742 5742 5742 5742 5743 5746 5745 5748 5747 5748 5747 5745
5560 5571 5576 5580 5589 5599 5607 5617 5628 5638 5643 5646 5649 5654 5658 5665 5675 5684 5687 5689 5694 5698 5702 5704 5709 5712 5714 5718 5721 5722 5723 5728 5732 5734 5733 5734 5736 5740 5738 5741 5741 5742 5742 5740
5552 5562 5565 5571 5579 5591 5600 5612 5619 5629 5627 5631 5640 5645 5652 5661 5665 5669 5675 5680 5683 5685 5689 5694 5699 5703 5705 5708 5710 5711 5714 5715 5721 5724 5725 5725 5729 5731 5730 5732 5736 5735 5736 5735
5548 5554 5564 5566 5575 5587 5597 5607 5610 5614 5618 5624 5630 5638 5650 5654 5656 5656 5660 5667 5672 5677 5682 5686 5690 5693 5696 5698 5700 5701 5701 5705 5707 5713 5716 5717 5720 5722 5723 5724 5729 5729 5731 5729
5543 5551 5557 5566 5574 5581 5592 5595 5600 5604 5611 5612 5628 5635 5640 5647 5650 5646 5649 5657 5660 5664 5670 5675 5680 5684 5687 5689 5689 5691 5692 5692 5698 5702 5706 5707 5710 5713 5715 5717 5722 5723 5724 5724
5540 5542 5551 5562 5568 5575 5580 5586 5593 5599 5601 5613 5619 5623 5633 5635 5637 5636 5641 5646 5651 5656 5663 5668 5671 5673 5676 5679 5680 5681 5682 5683 5687 5692 5696 5697 5700 5703 5706 5710 5715 5717 5717 5717
5536 5542 5547 5554 5564 5570 5578 5584 5590 5594 5598 5606 5615 5615 5621 5624 5631 5635 5634 5635 5641 5648 5654 5656 5659 5663 5666 5667 5671 5672 5674 5674 5676 5682 5686 5687 5690 5695 5697 5703 5708 5711 5711 5710
5534 5543 5547 5554 5562 5567 5573 5575 5589 5592 5597 5601 5608 5612 5618 5621 5623 5626 5627 5631 5633 5639 5645 5646 5649 5652 5655 5657 5660 5663 5664 5666 5668 5672 5675 5678 5681 5686 5689 5696 5699 5703 5707 5703
5534 5545 5547 5553 5558 5562 5568 5578 5583 5588 5595 5599 5603 5609 5612 5605 5612 5616 5620 5623 5627 5632 5633 5635 5638 5641 5644 5647 5650 5652 5655 5656 5659 5662 5665 5669 5672 5676 5681 5687 5692 5695 5700 5699
5540 5545 5549 5553 5558 5562 5566 5572 5579 5586 5589 5595 5600 5607 5607 5607 5608 5607 5613 5616 5620 5622 5624 5627 5628 5631 5633 5637 5640 5642 5644 5645 5648 5651 5657 5659 5664 5668 5673 5680 5684 5688 5691 5692
5539 5542 5549 5555 5557 5560 5565 5570 5577 5582 5587 5591 5597 5601 5602 5597 5599 5603 5610 5611 5612 5614 5616 5618 5620 5621 5624 5627 5630 5632 5635 5638 5641 5644 5646 5649 5655 5660 5664 5671 5674 5681 5683 5684
5539 5544 5549 5553 5558 5561 5565 5569 5574 5580 5584 5587 5589 5594 5594 5594 5597 5600 5603 5605 5606 5607 5608 5610 5611 5613 5615 5618 5620 5623 5625 5628 5632 5634 5637 5641 5646 5651 5656 5662 5668 5673 5675 5678
5542 5546 5549 5553 5556 5561 5565 5570 5574 5575 5581 5584 5585 5587 5588 5590 5593 5595 5597 5598 5600 5600 5601 5603 5604 5605 5607 5610 5613 5615 5618 5621 5624 5627 5630 5635 5639 5644 5648 5654 5661 5665 5668 5671
5544 5549 5550 5553 5556 5560 5566 5568 5571 5574 5577 5580 5581 5581 5584 5588 5589 5591 5592 5593 5594 5594 5595 5596 5598 5598 5599 5603 5605 5608 5611 5614 5618 5621 5624 5628 5633 5637 5640 5648 5653 5656 5661 5664
5546 5547 5551 5550 5554 5557 5564 5564 5568 5571 5574 5576 5579 5579 5584 5586 5585 5586 5588 5589 5590 5589 5589 5591 5591 5593 5593 5595 5598 5599 5602 5605 5610 5615 5618 5621 5624 5628 5632 5641 5644 5647 5652 5655
5547 5549 5550 5553 5555 5559 5564 5563 5566 5571 5575 5576 5577 5579 5581 5582 5583 5583 5584 5585 5585 5585 5585 5585 5586 5587 5588 5589 5589 5589 5593 5597 5600 5605 5610 5616 5618 5622 5625 5632 5635 5638 5642 5646
5547 5549 5552 5554 5558 5561 5562 5564 5567 5569 5571 5573 5575 5577 5578 5579 5579 5580 5580 5579 5580 5580 5581 5581 5581 5581 5582 5582 5582 5578 5582 5587 5592 5597 5603 5607 5612 5615 5618 5622 5626 5629 5632 5636
5547 5550 5553 5556 5558 5561 5563 5564 5567 5567 5570 5571 5573 5574 5575 5575 5577 5577 5576 5576 5576 5576 5577 5577 5578 5578 5577 5578 5574 5573 5575 5580 5586 5592 5596 5600 5604 5606 5609 5613 5615 5619 5621 5626
5546 5548 5552 5555 5558 5560 5561 5563 5564 5564 5567 5569 5569 5570 5572 5572 5573 5574 5573 5573 5573 5572 5572 5572 5572 5572 5572 5572 5572 5573 5575 5575 5580 5583 5589 5592 5594 5592 5598 5603 5606 5609 5612 5615
5551 5553 5555 5556 5557 5559 5560 5561 5562 5564 5567 5566 5566 5567 5568 5569 5570 5570 5570 5570 5570 5570 5570 5569 5568 5568 5568 5568 5568 5569 5569 5570 5571 5574 5576 5579 5580 5572 5587 5592 5588 5595 5599 5604
5553 5554 5554 5555 5556 5558 5558 5560 5562 5562 5562 5563 5563 5564 5565 5565 5566 5567 5567 5566 5567 5567 5567 5567 5566 5567 5567 5567 5566 5564 5564 5564 5564 5564 5567 5568 5567 5572 5576 5576 5579 5580 5586 5591
5552 5553 5554 5555 5555 5555 5555 5556 5558 5559 5560 5560 5561 5561 5562 5562 5563 5563 5563 5563 5563 5563 5563 5563 5563 5563 5564 5564 5563 5561 5559 5558 5559 5560 5562 5559 5559 5563 5566 5569 5565 5561 5570 5575
5550 5550 5551 5552 5552 5552 5552 5553 5554 5555 5555 5556 5557 5558 5558 5558 5559 5558 5558 5558 5558 5558 5558 5558 5558 5558 5557 5558 5558 5557 5556 5553 5553 5553 5553 5552 5553 5555 5556 5556 5556 5558 5557 5562
5547 5547 5547 5549 5549 5549 5550 5550 5551 5551 5551 5551 5552 5552 5553 5553 5552 5552 5552 5552 5551 5551 5551 5550 5551 5551 5551 5550 5550 5550 5550 5549 5548 5547 5546 5545 5545 5546 5547 5548 5547 5547 5546 5546
5543 5544 5545 5545 5546 5546 5546 5547 5547 5548 5548 5548 5547 5547 5548 5548 5548 5547 5547 5546 5546 5544 5543 5543 5542 5543 5542 5541 5541 5541 5541 5541 5540 5540 5539 5539 5538 5537 5538 5538 5538 5537 5537 5537